sat.trackr.live / text

‹ back to catalog

STARLINK-35703

NORAD 66970 · 2025-288M

PAYLOAD ACTIVE UNKNOWN

§ Identity

Operator
Country
US
Launch date
2025-12-08
Launch site
AFETR
Launch vehicle
Mass (kg)
RCS (m²)

Purposes: comms

External: N2YO · Heavens-Above · Gunter

§ Orbital elements

Epoch: 2026-09-20T07:12:45.181152Z

Period
94.27 min
Inclination
42.9978°
Eccentricity
0.0000676
Mean motion
15.27589594 rev/d
Perigee alt
482.6 km
Apogee alt
483.5 km
Semi-major
6,861.2 km
B*
5.0515e-4
RAAN
4.1292°
Arg perigee
265.7588°
Mean anomaly
94.3186°
Rev number
4,505

§ Raw data

STARLINK-357031 66970U 25288M   26263.30052293  .00013668  00000+0  50515-3 0  99982 66970  42.9978   4.1292 0000676 265.7588  94.3186 15.27589594 45057

JSON: /api/v1/satellites/66970 · /tle

For live sub-satellite position, see the globe view (requires WebGL).

§ Visibility from observer

Set your observer location to see the next 7 days of passes ≥ 10°. The values pass through the URL so the page stays shareable.

No JS? Fill the form by hand. The geolocation button needs JavaScript.